Orbital Elements at Epoch 2459200.5 (2020-Dec-17.0) TDB
Reference: JPL 23 (heliocentric ecliptic J2000)
Element | Value | Uncertainty (1-sigma) | Units |
e | .2085917828757649 | 3.2104e-08 | |
a | 3.093375951416103 | 1.6318e-08 | au |
q | 2.448123146605203 | 1.0189e-07 | au |
i | 2.717869863062474 | 3.3472e-06 | deg |
node | 133.5890826931029 | 9.0694e-05 | deg |
peri | 214.0357652396841 | 9.1137e-05 | deg |
M | 294.5925209441407 | 1.085e-05 | deg |
tp | 2459561.554194132467 (2021-Dec-13.05419413) | 6.1431e-05 | TDB |
period | 1987.227023024124 5.44 | 1.5724e-05 4.305e-08 | d yr |
n | .181156956819236 | 1.4334e-09 | deg/d |
Q | 3.738628756227004 | 1.9722e-08 | au |
|
| | Orbit Determination Parameters
Additional Information
|